Piney Island, NC

6:15 PM EDT on April 28, 2017 (GMT -0400)
Piney Island

Weather History for KNBT - February, 2012

Change the Weather History Date:

Sunday, February 19, 2012

  Actual Average (KMRH) Record (KMRH)
Temperature  
Mean Temperature 52 °F -  
Max Temperature 57 °F 58 °F 70 °F (1984)
Min Temperature 48 °F 38 °F 17 °F (1958)
Degree Days  
Heating Degree Days 12    
Growing Degree Days 2 (Base 50)    
Moisture  
Dew Point 48 °F    
Average Humidity 85    
Maximum Humidity 89    
Minimum Humidity 77    
Precipitation  
Precipitation 0.77 in - - ()
Sea Level Pressure  
Sea Level Pressure 29.78 in    
Wind  
Wind Speed 14 mph (NNE)    
Max Wind Speed 26 mph    
Max Gust Speed 39 mph    
Visibility 5 miles    
Events Rain    
Averages and records for this station are not official NWS values.
T = Trace of Precipitation, MM = Missing Value Source: NWS Daily Summary

Daily Weather History Graph

Daily Weather History Graph

Search for Another Location

Airport or City:

Trip Planner

Search our weather history database for the weather conditions in past years. The results will help you decide how hot, cold, wet, or windy it might be!

Date:

Astronomy

Feb. 19, 2012 Rise Set
Actual Time 6:48 AM EST 5:51 PM EST
Civil Twilight 6:22 AM EST 6:17 PM EST
Nautical Twilight 5:52 AM EST 6:47 PM EST
Astronomical Twilight 5:23 AM EST 7:16 PM EST
Moon 5:03 AM EST (2/19) 3:53 PM EST (2/19)
Length of Visible Light 11h 55m
Length of Day
11h 03m
Waning Crescent, 5% of the Moon is Illuminated
Feb 19
Waning Crescent
Feb 21
New
Feb 29
First Quarter
Mar 8
Full
Mar 14
Last Quarter

Hourly Weather History & Observations

Time (EST) Temp. Dew Point Humidity Pressure Visibility Wind Dir Wind Speed Gust Speed Precip Events Conditions
12:56 AM 55.0 °F 48.9 °F 80% 29.99 in 10.0 mi NE 5.8 mph - N/A   Overcast
1:56 AM 55.9 °F 48.9 °F 77% 29.95 in 10.0 mi NE 4.6 mph - N/A   Overcast
2:56 AM 55.9 °F 50.0 °F 80% 29.94 in 6.0 mi NNE 4.6 mph - 0.04 in Rain Light Rain
3:56 AM 57.0 °F 51.1 °F 81% 29.93 in 7.0 mi NNE 4.6 mph - 0.09 in Rain Light Rain
4:56 AM 55.0 °F 50.0 °F 83% 29.94 in 7.0 mi NNE 9.2 mph - 0.05 in Rain Light Rain
5:39 AM 53.6 °F 50.0 °F 88% 29.91 in 6.0 mi NE 6.9 mph - 0.03 in Rain Light Rain
5:56 AM 54.0 °F 50.0 °F 86% 29.91 in 6.0 mi ENE 9.2 mph - 0.04 in Rain Light Rain
6:56 AM 53.1 °F 46.9 °F 80% 29.91 in 9.0 mi ENE 16.1 mph 23.0 mph 0.04 in   Overcast
7:48 AM 51.8 °F 46.4 °F 82% 29.90 in 9.0 mi NE 16.1 mph 21.9 mph N/A   Mostly Cloudy
8:28 AM 53.6 °F 46.4 °F 77% 29.90 in 7.0 mi NE 13.8 mph - 0.00 in Rain Light Rain
8:56 AM 53.1 °F 46.9 °F 80% 29.92 in 6.0 mi NNE 13.8 mph - 0.00 in   Haze
9:28 AM 53.6 °F 48.2 °F 82% 29.90 in 2.5 mi NNE 16.1 mph 23.0 mph 0.00 in Rain Light Rain
9:46 AM 53.6 °F 48.2 °F 82% 29.89 in 2.0 mi NNE 13.8 mph 18.4 mph 0.00 in Rain Light Rain
9:53 AM 53.6 °F 48.2 °F 82% 29.89 in 1.5 mi North 13.8 mph 20.7 mph 0.01 in Rain Light Rain
9:56 AM 53.1 °F 48.0 °F 83% 29.91 in 1.5 mi NNE 15.0 mph - 0.01 in Rain Light Rain
10:56 AM 52.0 °F 48.9 °F 89% 29.88 in 1.5 mi NNE 15.0 mph 20.7 mph 0.04 in   Overcast
11:54 AM 53.6 °F 48.2 °F 82% 29.84 in 3.0 mi NE 20.7 mph 26.5 mph 0.02 in Rain Light Rain
11:56 AM 53.1 °F 48.9 °F 86% 29.85 in 3.0 mi NE 19.6 mph 26.5 mph 0.02 in Rain Light Rain
12:04 PM 53.6 °F 48.2 °F 82% 29.84 in 2.5 mi NE 21.9 mph 29.9 mph 0.00 in Rain Light Rain
12:12 PM 53.6 °F 48.2 °F 82% 29.83 in 4.0 mi NE 18.4 mph 29.9 mph 0.00 in Rain Light Rain
12:24 PM 51.8 °F 48.2 °F 88% 29.82 in 1.8 mi NE 18.4 mph 27.6 mph 0.01 in Rain Light Rain
12:41 PM 51.8 °F 48.2 °F 88% 29.82 in 2.5 mi NE 16.1 mph 26.5 mph 0.01 in Rain Light Rain
12:56 PM 52.0 °F 48.9 °F 89% 29.82 in 1.2 mi NE 20.7 mph 28.8 mph 0.03 in Rain Light Rain
1:20 PM 51.8 °F 48.2 °F 88% 29.79 in 2.0 mi NE 18.4 mph 29.9 mph 0.01 in Rain Light Rain
1:49 PM 51.8 °F 48.2 °F 88% 29.75 in 1.5 mi NE 18.4 mph 29.9 mph 0.03 in Rain Light Rain
1:56 PM 52.0 °F 48.9 °F 89% 29.76 in 2.0 mi NE 21.9 mph 36.8 mph 0.04 in Rain Light Rain
2:14 PM 51.8 °F 48.2 °F 88% 29.75 in 3.0 mi NE 24.2 mph 32.2 mph 0.00 in Rain Light Rain
2:56 PM 51.1 °F 48.0 °F 89% 29.74 in 3.0 mi NNE 19.6 mph 35.7 mph 0.07 in Rain Light Rain
3:04 PM 51.8 °F 48.2 °F 88% 29.70 in 1.8 mi NE 26.5 mph 35.7 mph 0.05 in Rain Heavy Rain
3:19 PM 51.8 °F 48.2 °F 88% 29.70 in 3.0 mi NE 25.3 mph 34.5 mph 0.09 in Rain Rain
3:26 PM 51.8 °F 48.2 °F 88% 29.71 in 2.0 mi NE 21.9 mph 34.5 mph 0.12 in Rain Heavy Rain
3:38 PM 51.8 °F 48.2 °F 88% 29.69 in 5.0 mi NE 24.2 mph 34.5 mph 0.12 in Rain Light Rain
3:56 PM 51.1 °F 48.0 °F 89% 29.71 in 3.0 mi NE 21.9 mph 33.4 mph 0.13 in Rain Light Rain
4:31 PM 51.8 °F - N/A% 29.67 in 1.5 mi NE 23.0 mph 39.1 mph 0.06 in Rain Heavy Rain
4:42 PM 51.8 °F - N/A% 29.66 in 3.0 mi NE 24.2 mph 33.4 mph 0.08 in Rain Light Rain
4:56 PM 51.1 °F - N/A% 29.67 in 4.0 mi NE 24.2 mph 33.4 mph 0.08 in Rain Light Rain
5:56 PM 51.1 °F - N/A% 29.66 in 8.0 mi NE 26.5 mph 36.8 mph 0.00 in Rain Light Rain
6:56 PM 50.0 °F - N/A% 29.72 in 6.0 mi NE 23.0 mph 36.8 mph 0.06 in Rain Light Rain
7:03 PM 51.8 °F - N/A% 29.60 in 4.0 mi NNE 21.9 mph 32.2 mph 0.02 in Rain Light Rain
7:24 PM 51.8 °F - N/A% 29.66 in 10.0 mi North 15.0 mph 24.2 mph 0.03 in Rain Light Rain
7:43 PM 51.8 °F - N/A% 29.64 in 10.0 mi North 18.4 mph 25.3 mph 0.03 in   Overcast
7:56 PM 51.1 °F - N/A% 29.65 in 10.0 mi North 18.4 mph 24.2 mph 0.03 in   Overcast
8:53 PM 48.2 °F - N/A% 29.62 in 10.0 mi North 21.9 mph 26.5 mph 0.00 in   Overcast
8:56 PM 48.9 °F - N/A% 29.63 in 10.0 mi North 21.9 mph 29.9 mph 0.00 in   Overcast
9:56 PM 50.0 °F - N/A% 29.65 in 10.0 mi North 19.6 mph 29.9 mph N/A   Overcast
10:08 PM 50.0 °F - N/A% 29.64 in 10.0 mi North 18.4 mph 29.9 mph N/A   Overcast
10:35 PM 51.8 °F - N/A% 29.67 in 10.0 mi North 17.3 mph 27.6 mph 0.00 in Rain Light Rain
10:56 PM 50.0 °F - N/A% 29.69 in 10.0 mi North 18.4 mph 25.3 mph 0.00 in Rain Light Rain
11:56 PM 48.0 °F 43.0 °F 83% 29.73 in 10.0 mi NNW 17.3 mph 31.1 mph 0.00 in Rain Light Rain